Regional Weather Roundup
Issued by NWS

Home | Current Version | Previous Version | Text Only | Print | Product List | Glossary Off
Versions: 1 2 3 4 5 6 7 8 9 10 11 12 13 14 15 16 17 18 19 20 21 22 23 24 25 26 27 28 29 30 31 32 33 34 35 36 37 38 39 40 41 42 43 44 45 46 47 48 49 50

000
ASUS45 KBOU 220907
RWRCO

WEATHER ROUNDUP FOR COLORADO
NATIONAL WEATHER SERVICE DENVER/BOULDER CO
300 AM MDT MON SEP 22 2014

NOTE: "FAIR" INDICATES FEW OR NO CLOUDS BELOW 12000 FEET WITH NO
SIGNIFICANT WEATHER AND/OR OBSTRUCTIONS TO VISIBILITY.

COZ001>005-013-030-031-221000-
...NORTHWEST COLORADO...

CITY           SKY/WX    TMP DP  RH WIND       PRES   REMARKS
CRAIG          MOCLDY    56  51  84 E5        30.25F
HAYDEN         MOCLDY    54  48  82 E10       30.27F
MEEKER         PTCLDY    53  50  89 NE3       30.26F
MOUNT WERNER   NOT AVBL
STEAMBOAT SPGS MOCLDY    52  50  93 CALM      30.30F
WALDEN         MOCLDY    48  45  87 SE3       30.38F
$$

COZ006>008-011-221000-
...WEST CENTRAL VALLEYS...

CITY           SKY/WX    TMP DP  RH WIND       PRES   REMARKS
GRAND JUNCTION MOCLDY    62  57  83 SE17      30.18F
MONTROSE       LGT RAIN  60  58  92 E7        30.29F
EAGLE          CLOUDY    55  55 100 CALM      30.37R
RIFLE          MOCLDY    58  56  93 CALM      30.25S
DELTA          RAIN      62  59  92 N7        30.27S
NUCLA          CLOUDY    59  55  88 SE6       30.31F
$$

COZ017>023-064>068-221000-
...SOUTHWEST COLORADO...

CITY           SKY/WX    TMP DP  RH WIND       PRES   REMARKS
DURANGO        TSTM      61  54  77 SE3       30.33F
CORTEZ         CLOUDY    60  58  92 W5        30.27F
PAGOSA SPRINGS CLOUDY    58  49  72 CALM      30.41S
TELLURIDE      NOT AVBL
WOLF CREEK PAS HVY SNOW  41  41 100 SW12G22   30.63F VSB<1/4
$$

COZ009-010-012-014-032>034-037-058>063-221000-
...CENTRAL COLORADO...

CITY           SKY/WX    TMP DP  RH WIND       PRES   REMARKS
ASPEN          LGT RAIN  52  51  97 CALM      30.38S
BUENA VISTA    RAIN      53  51  92 SE6       30.41F
COPPER MTN     CLOUDY    46  37  71 S12G18    30.61F
BERTHOUD PASS  FOG       36  34  93 W13       30.65F VSB 1/2
COTTONWOOD PAS RAIN      52  48  87 CALM      30.50F VSB<1/4
GUNNISON       CLOUDY    55  48  76 CALM      30.41F
KREMMLING      DRIZZLE   52  48  87 E3        30.38F
LEADVILLE      CLOUDY    47  47 100 SW6       30.48F
MONARCH PASS   FOG       43  41  93 S15       30.73F VSB 1
SALIDA         CLOUDY    56  52  85 SE5       30.46F
SUNLIGHT       RAIN      46  46 100 CALM      30.54F
WILKERSON PASS NOT AVBL
$$

COZ069>075-221000-
...SAN LUIS VALLEY/SANGRE DE CRISTO MOUNTAINS...

CITY           SKY/WX    TMP DP  RH WIND       PRES   REMARKS
ALAMOSA        CLOUDY    59  50  72 S12       30.39F
LA VETA PASS   CLOUDY    45  43  93 CALM      30.56F
SAGUACHE       NOT AVBL
$$

COZ035-036-038>040-221000-
...NORTHERN COLORADO FRONT RANGE...

CITY           SKY/WX    TMP DP  RH WIND       PRES   REMARKS
DENVER INTL AP MOCLDY    58  47  66 SE14      30.23F
DMNS CITY PARK   N/A     60  47  62 S7G13     30.21F
AURORA         MOCLDY    60  45  57 S18       30.24F
FRONT RANGE AP MOCLDY    59  46  63 S10       30.25F
ERIE MUNI ARPT NOT AVBL
BOULDER MUN AP CLOUDY    57  54  88 CALM      30.22F
CENTENNIAL     CLOUDY    59  45  59 S13       30.26F
BROOMFIELD     CLOUDY    59  54  82 CALM      30.24F
FORT COLLINS   CLOUDY    55  46  71 NW7       30.24S
LONGMONT       CLOUDY    60  56  87 N3        30.23F
$$

COZ041-046-047-076>085-087-088-221000-
...PIKES PEAK/PALMER DIVIDE AND SOUTHERN FOOTHILLS...

CITY           SKY/WX    TMP DP  RH WIND       PRES   REMARKS
COLO. SPRINGS  CLOUDY    59  42  53 SE10      30.35F
A. F. ACADEMY  CLOUDY    58  42  55 S13       30.35F
ELLICOTT       NOT AVBL
FALCON         CLOUDY    54  40  59 S12       30.38F
FORT CARSON    CLOUDY    60  44  55 S9        30.33F
LIMON          PTCLDY    51  38  60 SE12      30.33F
MONUMENT HILL  MOCLDY    52  41  66 S17       30.34F
TRINIDAD       CLOUDY    60  56  86 NW3       30.33F
$$

COZ042>045-048>051-090-091-221000-
...NORTHEAST COLORADO...

CITY           SKY/WX    TMP DP  RH WIND       PRES   REMARKS
GREELEY ARPT   MOCLDY    61  43  51 SE13      30.22F
AKRON          CLOUDY    59  40  49 S17G25    30.28F
BURLINGTON     PTCLDY    56  39  53 S13       30.31F
WRAY           CLOUDY    63  40  42 SE8       30.29S
STERLING       CLOUDY    63  45  51 S8        30.24F
HOLYOKE        PTCLDY    55  45  67 SE6       30.28S
FORT MORGAN    MOCLDY    57  39  51 SE8       30.26F
$$

COZ086-089-092>099-221000-
...SOUTHEAST COLORADO...

CITY           SKY/WX    TMP DP  RH WIND       PRES   REMARKS
PUEBLO         MOCLDY    62  46  55 E12       30.26F
LA JUNTA       PTCLDY    59  45  59 E8        30.28F
LAMAR          PTCLDY    55  43  63 SE7       30.28F
SPRINGFIELD      N/A     59  51  75 S12       30.33F
$$


USA.gov is the U.S. government's official web portal to all federal, state and local government web resources and services.